Starlink 5067

operational
NORAD ID: 55653 Int'l Des: 2023-021 Owner: SPXS Country: US Constellation: starlink
LEOCIRCULAR

About Starlink 5067

Description loading...

Live Position

Loading 3D Globe...

Upcoming Passes

Altitude History

Altitude vs Time

uPlot chart will show altitude changes over time

Two-Line Element Set

1 55653U 23021AB 25261.03592525 -.00000139 00000-0 -38315-5 0 9999
2 55653 69.9961 259.6090 0002903 271.7557 88.3269 14.98331313142936
Epoch: Sep 18, 2025 • Age: 12 hours

Current Status

Altitude 574.2 km
Velocity 7.57 km/s
Sub-Earth Point 12.86°N, 116.35°W
Launch Date Feb 17, 2023
Age 2.5 years
Type internet

Technical Details

Classification Payload
Mass 305.00 kg
Dry Mass 290.00 kg
Total Mass 305.00 kg
Length 0.20 m
Diameter 2.80 m
Span 9.00 m
Shape Box + pan
Manufacturer SPXS
Bus Type Starlink
Phase Status In Orbit
Owner/State SPXS/US

Large Constellations

Loading constellations...